Time,TemperatureF,DewpointF,PressureIn,WindDirection,WindDirectionDegrees,WindSpeedMPH,WindSpeedGustMPH,Humidity,HourlyPrecipIn,Conditions,Clouds,dailyrainin,SoftwareType,DateUTC
2013-02-15 00:00:00,26.6,19.7,29.96,NE,45,5.4,9.8,75,0.00,,,0.00,WUHU216HW,2013-02-15 06:00:00,
2013-02-15 00:05:00,26.5,19.5,29.96,North,0,7.6,9.8,75,0.00,,,0.00,WUHU216HW,2013-02-15 06:05:00,
2013-02-15 00:10:00,26.5,19.3,29.96,North,0,8.5,10.5,74,0.00,,,0.00,WUHU216HW,2013-02-15 06:10:00,
2013-02-15 00:15:00,26.3,19.4,29.97,NNE,23,4.9,10.5,75,0.00,,,0.00,WUHU216HW,2013-02-15 06:15:00,
2013-02-15 00:20:00,26.1,18.5,29.97,NNW,338,9.2,9.2,73,0.00,,,0.00,WUHU216HW,2013-02-15 06:20:00,
2013-02-15 00:25:00,25.9,18.4,29.98,North,0,5.6,10.5,73,0.00,,,0.00,WUHU216HW,2013-02-15 06:25:00,
2013-02-15 00:30:00,25.7,18.5,29.98,North,0,9.4,10.5,74,0.00,,,0.00,WUHU216HW,2013-02-15 06:30:00,
2013-02-15 00:35:00,25.4,17.9,29.98,North,0,11.4,12.1,73,0.00,,,0.00,WUHU216HW,2013-02-15 06:35:00,
2013-02-15 00:40:00,25.4,18.2,29.98,NNW,338,5.8,12.1,74,0.00,,,0.00,WUHU216HW,2013-02-15 06:40:00,
2013-02-15 00:45:00,25.2,18.4,29.99,NNW,338,5.4,11.4,75,0.00,,,0.00,WUHU216HW,2013-02-15 06:45:00,
2013-02-15 00:50:00,25.0,18.2,29.99,North,0,8.9,9.4,75,0.00,,,0.00,WUHU216HW,2013-02-15 06:50:00,
2013-02-15 00:55:00,25.0,18.2,29.99,NNE,23,7.2,9.8,75,0.00,,,0.00,WUHU216HW,2013-02-15 06:55:00,
2013-02-15 01:00:00,24.8,18.0,29.99,North,0,6.9,9.8,75,0.00,,,0.00,WUHU216HW,2013-02-15 07:00:00,
2013-02-15 01:05:00,24.8,17.6,29.99,North,0,8.5,11.4,74,0.00,,,0.00,WUHU216HW,2013-02-15 07:05:00,
2013-02-15 01:10:00,24.7,17.6,29.99,NNW,338,10.3,13.4,74,0.00,,,0.00,WUHU216HW,2013-02-15 07:10:00,
2013-02-15 01:15:00,24.5,16.8,29.99,North,0,6.9,13.4,72,0.00,,,0.00,WUHU216HW,2013-02-15 07:15:00,
2013-02-15 01:20:00,24.1,16.4,29.99,North,0,4.0,11.4,72,0.00,,,0.00,WUHU216HW,2013-02-15 07:20:00,
2013-02-15 01:25:00,23.9,16.2,30.00,NNE,23,5.4,9.2,72,0.00,,,0.00,WUHU216HW,2013-02-15 07:25:00,
2013-02-15 01:30:00,23.8,16.0,30.00,NNE,23,9.2,9.2,72,0.00,,,0.00,WUHU216HW,2013-02-15 07:30:00,
2013-02-15 01:35:00,23.6,16.2,30.00,NNW,338,6.7,9.4,73,0.00,,,0.00,WUHU216HW,2013-02-15 07:35:00,
2013-02-15 01:40:00,23.4,16.3,30.00,NNW,338,7.8,9.4,74,0.00,,,0.00,WUHU216HW,2013-02-15 07:40:00,
2013-02-15 01:45:00,23.4,16.7,30.00,NNE,23,12.1,12.1,75,0.00,,,0.00,WUHU216HW,2013-02-15 07:45:00,
2013-02-15 01:50:00,23.2,16.5,30.01,North,0,8.5,12.1,75,0.00,,,0.00,WUHU216HW,2013-02-15 07:50:00,
2013-02-15 01:55:00,22.9,16.1,30.01,North,0,6.5,12.1,75,0.00,,,0.00,WUHU216HW,2013-02-15 07:55:00,
2013-02-15 02:00:00,22.7,16.2,30.02,North,0,6.3,10.3,76,0.00,,,0.00,WUHU216HW,2013-02-15 08:00:00,
2013-02-15 02:05:00,22.5,15.5,30.02,NNE,23,8.1,10.5,74,0.00,,,0.00,WUHU216HW,2013-02-15 08:05:00,
2013-02-15 02:10:00,22.3,15.3,30.02,North,0,4.0,11.0,74,0.00,,,0.00,WUHU216HW,2013-02-15 08:10:00,
2013-02-15 02:15:00,22.0,14.6,30.02,NNE,23,10.5,11.0,73,0.00,,,0.00,WUHU216HW,2013-02-15 08:15:00,
2013-02-15 02:20:00,21.8,14.1,30.02,North,0,9.2,12.1,72,0.00,,,0.00,WUHU216HW,2013-02-15 08:20:00,
2013-02-15 02:25:00,21.2,13.2,30.02,North,0,6.9,12.1,71,0.00,,,0.00,WUHU216HW,2013-02-15 08:25:00,
2013-02-15 02:30:00,21.1,12.8,30.03,North,0,5.6,11.0,70,0.00,,,0.00,WUHU216HW,2013-02-15 08:30:00,
2013-02-15 02:35:00,20.7,12.4,30.03,NNE,23,7.6,13.4,70,0.00,,,0.00,WUHU216HW,2013-02-15 08:35:00,
2013-02-15 02:40:00,20.5,12.2,30.03,NNE,23,9.8,13.4,70,0.00,,,0.00,WUHU216HW,2013-02-15 08:40:00,
2013-02-15 02:45:00,19.8,11.2,30.04,North,0,8.5,10.7,69,0.00,,,0.00,WUHU216HW,2013-02-15 08:45:00,
2013-02-15 02:50:00,19.4,10.8,30.04,North,0,3.8,10.5,69,0.00,,,0.00,WUHU216HW,2013-02-15 08:50:00,
2013-02-15 02:55:00,19.1,10.5,30.04,North,0,4.7,9.8,69,0.00,,,0.00,WUHU216HW,2013-02-15 08:55:00,
2013-02-15 03:00:00,18.9,10.7,30.04,North,0,5.8,8.1,70,0.00,,,0.00,WUHU216HW,2013-02-15 09:00:00,
2013-02-15 03:05:00,18.7,10.5,30.04,NNW,338,4.0,8.1,70,0.00,,,0.00,WUHU216HW,2013-02-15 09:05:00,
2013-02-15 03:10:00,18.4,10.2,30.04,North,0,4.7,8.1,70,0.00,,,0.00,WUHU216HW,2013-02-15 09:10:00,
2013-02-15 03:15:00,18.2,10.4,30.04,North,0,8.7,8.7,71,0.00,,,0.00,WUHU216HW,2013-02-15 09:15:00,
2013-02-15 03:20:00,18.0,10.2,30.04,NNE,23,5.4,8.7,71,0.00,,,0.00,WUHU216HW,2013-02-15 09:20:00,
2013-02-15 03:25:00,17.8,10.0,30.04,North,0,3.8,11.4,71,0.00,,,0.00,WUHU216HW,2013-02-15 09:25:00,
2013-02-15 03:30:00,17.6,9.8,30.04,NNW,338,3.6,11.4,71,0.00,,,0.00,WUHU216HW,2013-02-15 09:30:00,
2013-02-15 03:35:00,17.5,9.6,30.04,North,0,5.4,9.8,71,0.00,,,0.00,WUHU216HW,2013-02-15 09:35:00,
2013-02-15 03:40:00,17.5,9.6,30.04,NNW,338,2.9,9.8,71,0.00,,,0.00,WUHU216HW,2013-02-15 09:40:00,
2013-02-15 03:45:00,17.3,9.5,30.04,North,0,3.6,9.4,71,0.00,,,0.00,WUHU216HW,2013-02-15 09:45:00,
2013-02-15 03:50:00,17.1,9.3,30.05,NNE,23,4.7,8.1,71,0.00,,,0.00,WUHU216HW,2013-02-15 09:50:00,
2013-02-15 03:55:00,17.1,9.3,30.05,North,0,4.5,8.1,71,0.00,,,0.00,WUHU216HW,2013-02-15 09:55:00,
2013-02-15 04:00:00,16.9,9.1,30.05,North,0,6.3,7.6,71,0.00,,,0.00,WUHU216HW,2013-02-15 10:00:00,
2013-02-15 04:05:00,16.9,9.1,30.06,North,0,4.3,7.6,71,0.00,,,0.00,WUHU216HW,2013-02-15 10:05:00,
2013-02-15 04:10:00,16.7,8.9,30.06,NNE,23,2.9,6.7,71,0.00,,,0.00,WUHU216HW,2013-02-15 10:10:00,
2013-02-15 04:15:00,16.6,8.7,30.06,NNW,338,5.6,6.0,71,0.00,,,0.00,WUHU216HW,2013-02-15 10:15:00,
2013-02-15 04:20:00,16.6,8.7,30.06,North,0,2.7,7.6,71,0.00,,,0.00,WUHU216HW,2013-02-15 10:20:00,
2013-02-15 04:25:00,16.4,8.6,30.06,NNW,338,4.0,7.6,71,0.00,,,0.00,WUHU216HW,2013-02-15 10:25:00,
2013-02-15 04:30:00,16.2,8.4,30.07,North,0,3.8,6.0,71,0.00,,,0.00,WUHU216HW,2013-02-15 10:30:00,
2013-02-15 04:35:00,16.2,8.4,30.07,North,0,4.7,6.3,71,0.00,,,0.00,WUHU216HW,2013-02-15 10:35:00,
2013-02-15 04:40:00,16.2,8.4,30.07,North,0,3.1,6.3,71,0.00,,,0.00,WUHU216HW,2013-02-15 10:40:00,
2013-02-15 04:45:00,16.2,8.4,30.07,North,0,5.6,6.9,71,0.00,,,0.00,WUHU216HW,2013-02-15 10:45:00,
2013-02-15 04:50:00,16.2,8.4,30.07,NNW,338,6.9,6.9,71,0.00,,,0.00,WUHU216HW,2013-02-15 10:50:00,
2013-02-15 04:55:00,16.0,8.6,30.07,North,0,2.5,8.1,72,0.00,,,0.00,WUHU216HW,2013-02-15 10:55:00,
2013-02-15 05:00:00,16.0,8.6,30.08,North,0,3.8,8.1,72,0.00,,,0.00,WUHU216HW,2013-02-15 11:00:00,
2013-02-15 05:05:00,15.8,8.4,30.08,North,0,2.5,5.6,72,0.00,,,0.00,WUHU216HW,2013-02-15 11:05:00,
2013-02-15 05:10:00,15.7,8.5,30.08,North,0,2.5,5.6,73,0.00,,,0.00,WUHU216HW,2013-02-15 11:10:00,
2013-02-15 05:15:00,15.5,8.3,30.08,North,0,3.6,5.6,73,0.00,,,0.00,WUHU216HW,2013-02-15 11:15:00,
2013-02-15 05:20:00,15.7,8.5,30.09,North,0,5.4,6.3,73,0.00,,,0.00,WUHU216HW,2013-02-15 11:20:00,
2013-02-15 05:25:00,15.7,8.5,30.09,North,0,4.0,6.3,73,0.00,,,0.00,WUHU216HW,2013-02-15 11:25:00,
2013-02-15 05:30:00,15.5,8.3,30.09,North,0,2.7,6.3,73,0.00,,,0.00,WUHU216HW,2013-02-15 11:30:00,
2013-02-15 05:34:00,15.5,8.3,30.09,North,0,3.1,4.7,73,0.00,,,0.00,WUHU216HW,2013-02-15 11:34:00,
2013-02-15 05:39:00,15.3,8.2,30.09,North,0,4.7,4.7,73,0.00,,,0.00,WUHU216HW,2013-02-15 11:39:00,
2013-02-15 05:44:00,15.3,8.2,30.09,NNW,338,3.1,4.7,73,0.00,,,0.00,WUHU216HW,2013-02-15 11:44:00,
2013-02-15 05:49:00,15.3,8.2,30.09,NNE,23,4.3,4.9,73,0.00,,,0.00,WUHU216HW,2013-02-15 11:49:00,
2013-02-15 05:54:00,15.1,8.0,30.09,North,0,2.7,4.9,73,0.00,,,0.00,WUHU216HW,2013-02-15 11:54:00,
2013-02-15 05:59:00,14.9,8.1,30.09,NNW,338,2.7,5.6,74,0.00,,,0.00,WUHU216HW,2013-02-15 11:59:00,
2013-02-15 06:04:00,14.9,8.1,30.09,North,0,4.0,5.6,74,0.00,,,0.00,WUHU216HW,2013-02-15 12:04:00,
2013-02-15 06:09:00,14.8,7.9,30.09,NNW,338,2.5,5.6,74,0.00,,,0.00,WUHU216HW,2013-02-15 12:09:00,
2013-02-15 06:14:00,14.6,7.7,30.09,North,0,3.4,4.7,74,0.00,,,0.00,WUHU216HW,2013-02-15 12:14:00,
2013-02-15 06:19:00,14.4,7.7,30.10,North,0,3.1,4.7,74,0.00,,,0.00,WUHU216HW,2013-02-15 12:19:00,
2013-02-15 06:24:00,14.6,7.7,30.10,North,0,2.5,4.7,74,0.00,,,0.00,WUHU216HW,2013-02-15 12:24:00,
2013-02-15 06:29:00,14.6,7.7,30.10,North,0,4.0,6.0,74,0.00,,,0.00,WUHU216HW,2013-02-15 12:29:00,
2013-02-15 06:34:00,14.6,7.7,30.10,North,0,4.0,6.3,74,0.00,,,0.00,WUHU216HW,2013-02-15 12:34:00,
2013-02-15 06:39:00,14.6,7.7,30.10,North,0,4.7,6.3,74,0.00,,,0.00,WUHU216HW,2013-02-15 12:39:00,
2013-02-15 06:44:00,14.6,7.7,30.10,NNW,338,3.4,5.4,74,0.00,,,0.00,WUHU216HW,2013-02-15 12:44:00,
2013-02-15 06:49:00,14.4,7.7,30.11,NNW,338,3.8,5.6,74,0.00,,,0.00,WUHU216HW,2013-02-15 12:49:00,
2013-02-15 06:54:00,14.4,7.7,30.10,NNW,338,5.1,6.5,74,0.00,,,0.00,WUHU216HW,2013-02-15 12:54:00,
2013-02-15 06:59:00,14.6,7.7,30.11,North,0,3.6,6.5,74,0.00,,,0.00,WUHU216HW,2013-02-15 12:59:00,
2013-02-15 07:04:00,14.4,7.7,30.11,North,0,2.7,5.4,74,0.00,,,0.00,WUHU216HW,2013-02-15 13:04:00,
2013-02-15 07:09:00,14.4,7.7,30.11,North,0,1.6,3.6,74,0.00,,,0.00,WUHU216HW,2013-02-15 13:09:00,
2013-02-15 07:15:00,14.4,7.7,30.11,North,0,4.0,4.0,74,0.00,,,0.00,WUHU216HW,2013-02-15 13:15:00,
2013-02-15 07:20:00,14.6,7.7,30.12,NW,315,2.5,4.0,74,0.00,,,0.00,WUHU216HW,2013-02-15 13:20:00,
2013-02-15 07:25:00,14.6,7.7,30.12,North,0,3.1,5.8,74,0.00,,,0.00,WUHU216HW,2013-02-15 13:25:00,
2013-02-15 07:30:00,14.8,7.9,30.12,North,0,4.0,5.8,74,0.00,,,0.00,WUHU216HW,2013-02-15 13:30:00,
2013-02-15 07:35:00,14.8,7.7,30.12,NNW,338,2.9,5.8,73,0.00,,,0.00,WUHU216HW,2013-02-15 13:35:00,
2013-02-15 07:40:00,14.9,7.8,30.12,North,0,2.9,5.8,73,0.00,,,0.00,WUHU216HW,2013-02-15 13:40:00,
2013-02-15 07:45:00,15.1,8.0,30.12,NNW,338,3.6,5.6,73,0.00,,,0.00,WUHU216HW,2013-02-15 13:45:00,
2013-02-15 07:50:00,15.3,7.8,30.12,NNW,338,3.4,5.8,72,0.00,,,0.00,WUHU216HW,2013-02-15 13:50:00,
2013-02-15 07:55:00,15.3,7.8,30.12,WNW,293,4.7,6.5,72,0.00,,,0.00,WUHU216HW,2013-02-15 13:55:00,
2013-02-15 08:00:00,15.5,7.8,30.13,North,0,6.3,8.5,71,0.00,,,0.00,WUHU216HW,2013-02-15 14:00:00,
2013-02-15 08:05:00,15.5,8.0,30.13,North,0,4.0,8.5,72,0.00,,,0.00,WUHU216HW,2013-02-15 14:05:00,
2013-02-15 08:10:00,15.7,7.9,30.13,North,0,3.8,6.9,71,0.00,,,0.00,WUHU216HW,2013-02-15 14:10:00,
2013-02-15 08:15:00,15.8,8.0,30.13,NW,315,6.5,7.6,71,0.00,,,0.00,WUHU216HW,2013-02-15 14:15:00,
2013-02-15 08:20:00,15.8,8.0,30.14,NNE,23,6.7,7.6,71,0.00,,,0.00,WUHU216HW,2013-02-15 14:20:00,
2013-02-15 08:25:00,16.0,8.2,30.14,North,0,6.3,8.1,71,0.00,,,0.00,WUHU216HW,2013-02-15 14:25:00,
2013-02-15 08:30:00,16.0,7.9,30.14,NNW,338,4.7,9.8,70,0.00,,,0.00,WUHU216HW,2013-02-15 14:30:00,
2013-02-15 08:35:00,16.2,8.1,30.14,North,0,6.9,9.8,70,0.00,,,0.00,WUHU216HW,2013-02-15 14:35:00,
2013-02-15 08:40:00,16.2,8.1,30.14,NNW,338,6.5,8.1,70,0.00,,,0.00,WUHU216HW,2013-02-15 14:40:00,
2013-02-15 08:45:00,16.4,7.9,30.14,NNW,338,6.3,8.1,69,0.00,,,0.00,WUHU216HW,2013-02-15 14:45:00,
2013-02-15 08:50:00,16.7,8.3,30.14,NNW,338,4.7,8.3,69,0.00,,,0.00,WUHU216HW,2013-02-15 14:50:00,
2013-02-15 08:55:00,16.7,8.3,30.15,North,0,3.4,8.3,69,0.00,,,0.00,WUHU216HW,2013-02-15 14:55:00,
2013-02-15 09:00:00,17.1,8.3,30.15,North,0,6.3,7.2,68,0.00,,,0.00,WUHU216HW,2013-02-15 15:00:00,
2013-02-15 09:05:00,17.3,8.5,30.15,NNW,338,4.7,7.2,68,0.00,,,0.00,WUHU216HW,2013-02-15 15:05:00,
2013-02-15 09:10:00,17.6,8.8,30.14,North,0,4.3,7.2,68,0.00,,,0.00,WUHU216HW,2013-02-15 15:10:00,
2013-02-15 09:15:00,17.8,9.0,30.14,North,0,4.5,5.4,68,0.00,,,0.00,WUHU216HW,2013-02-15 15:15:00,
2013-02-15 09:20:00,18.0,8.5,30.14,North,0,3.6,6.9,66,0.00,,,0.00,WUHU216HW,2013-02-15 15:20:00,
2013-02-15 09:25:00,18.2,9.0,30.14,North,0,4.3,7.6,67,0.00,,,0.00,WUHU216HW,2013-02-15 15:25:00,
2013-02-15 09:30:00,18.4,8.8,30.14,NNE,23,4.0,7.6,66,0.00,,,0.00,WUHU216HW,2013-02-15 15:30:00,
2013-02-15 09:35:00,18.5,8.6,30.15,North,0,5.8,9.2,65,0.00,,,0.00,WUHU216HW,2013-02-15 15:35:00,
2013-02-15 09:40:00,18.7,8.8,30.15,North,0,6.3,9.2,65,0.00,,,0.00,WUHU216HW,2013-02-15 15:40:00,
2013-02-15 09:45:00,19.1,9.5,30.15,North,0,4.5,8.9,66,0.00,,,0.00,WUHU216HW,2013-02-15 15:45:00,
2013-02-15 09:50:00,19.1,9.1,30.15,North,0,6.0,7.6,65,0.00,,,0.00,WUHU216HW,2013-02-15 15:50:00,
2013-02-15 09:55:00,19.3,9.3,30.15,NNW,338,4.0,7.4,65,0.00,,,0.00,WUHU216HW,2013-02-15 15:55:00,
2013-02-15 10:00:00,19.6,10.0,30.15,NNW,338,2.0,6.9,66,0.00,,,0.00,WUHU216HW,2013-02-15 16:00:00,
2013-02-15 10:05:00,20.0,10.0,30.15,North,0,5.4,6.7,65,0.00,,,0.00,WUHU216HW,2013-02-15 16:05:00,
2013-02-15 10:10:00,20.0,10.0,30.14,North,0,4.0,7.4,65,0.00,,,0.00,WUHU216HW,2013-02-15 16:10:00,
2013-02-15 10:15:00,20.5,10.5,30.15,NNW,338,2.7,7.4,65,0.00,,,0.00,WUHU216HW,2013-02-15 16:15:00,
2013-02-15 10:20:00,21.1,11.1,30.15,ENE,68,4.7,6.3,65,0.00,,,0.00,WUHU216HW,2013-02-15 16:20:00,
2013-02-15 10:25:00,21.1,10.4,30.15,North,0,7.2,7.2,63,0.00,,,0.00,WUHU216HW,2013-02-15 16:25:00,
2013-02-15 10:30:00,21.2,10.5,30.15,North,0,3.4,7.2,63,0.00,,,0.00,WUHU216HW,2013-02-15 16:30:00,
2013-02-15 10:35:00,21.8,10.7,30.15,NNE,23,4.0,7.2,62,0.00,,,0.00,WUHU216HW,2013-02-15 16:35:00,
2013-02-15 10:40:00,21.8,10.7,30.15,North,0,2.5,6.0,62,0.00,,,0.00,WUHU216HW,2013-02-15 16:40:00,
2013-02-15 10:45:00,22.5,11.7,30.15,NNE,23,2.0,6.0,63,0.00,,,0.00,WUHU216HW,2013-02-15 16:45:00,
2013-02-15 10:50:00,23.0,11.9,30.14,NW,315,4.7,4.9,62,0.00,,,0.00,WUHU216HW,2013-02-15 16:50:00,
2013-02-15 10:55:00,23.0,11.5,30.14,NNE,23,4.0,5.1,61,0.00,,,0.00,WUHU216HW,2013-02-15 16:55:00,
2013-02-15 11:00:00,23.4,11.9,30.14,NNE,23,4.9,6.3,61,0.00,,,0.00,WUHU216HW,2013-02-15 17:00:00,
2013-02-15 11:05:00,23.4,11.5,30.14,North,0,4.7,6.3,60,0.00,,,0.00,WUHU216HW,2013-02-15 17:05:00,
2013-02-15 11:10:00,23.8,12.3,30.14,NNE,23,2.9,5.8,61,0.00,,,0.00,WUHU216HW,2013-02-15 17:10:00,
2013-02-15 11:15:00,24.1,12.2,30.14,NE,45,5.6,5.6,60,0.00,,,0.00,WUHU216HW,2013-02-15 17:15:00,
2013-02-15 11:20:00,23.9,11.6,30.14,North,0,5.4,7.6,59,0.00,,,0.00,WUHU216HW,2013-02-15 17:20:00,
2013-02-15 11:25:00,24.1,11.8,30.14,North,0,4.5,7.6,59,0.00,,,0.00,WUHU216HW,2013-02-15 17:25:00,
2013-02-15 11:30:00,24.1,11.8,30.14,North,0,3.8,6.5,59,0.00,,,0.00,WUHU216HW,2013-02-15 17:30:00,
2013-02-15 11:35:00,24.3,11.6,30.14,North,0,5.6,6.7,58,0.00,,,0.00,WUHU216HW,2013-02-15 17:35:00,
2013-02-15 11:40:00,24.7,12.0,30.14,NNE,23,2.9,6.7,58,0.00,,,0.00,WUHU216HW,2013-02-15 17:40:00,
2013-02-15 11:45:00,25.0,11.9,30.14,North,0,3.1,7.8,57,0.00,,,0.00,WUHU216HW,2013-02-15 17:45:00,
2013-02-15 11:50:00,25.4,11.8,30.13,NNE,23,4.7,7.8,56,0.00,,,0.00,WUHU216HW,2013-02-15 17:50:00,
2013-02-15 11:56:00,26.1,12.9,30.13,North,0,3.4,6.9,57,0.00,,,0.00,WUHU216HW,2013-02-15 17:56:00,
2013-02-15 12:01:00,26.6,12.1,30.13,NNW,338,2.5,4.0,54,0.00,,,0.00,WUHU216HW,2013-02-15 18:01:00,
2013-02-15 12:06:00,25.9,11.9,30.13,NNW,338,4.0,5.4,55,0.00,,,0.00,WUHU216HW,2013-02-15 18:06:00,
2013-02-15 12:11:00,25.6,11.5,30.12,North,0,2.0,5.4,55,0.00,,,0.00,WUHU216HW,2013-02-15 18:11:00,
2013-02-15 12:16:00,25.6,11.5,30.13,NE,45,4.0,6.3,55,0.00,,,0.00,WUHU216HW,2013-02-15 18:16:00,
2013-02-15 12:21:00,25.6,12.0,30.12,NNE,23,4.7,7.6,56,0.00,,,0.00,WUHU216HW,2013-02-15 18:21:00,
2013-02-15 12:26:00,25.0,11.4,30.12,NW,315,2.5,10.3,56,0.00,,,0.00,WUHU216HW,2013-02-15 18:26:00,
2013-02-15 12:31:00,25.4,12.3,30.12,WSW,248,4.7,10.3,57,0.00,,,0.00,WUHU216HW,2013-02-15 18:31:00,
2013-02-15 12:36:00,26.1,11.6,30.12,SE,135,3.4,6.5,54,0.00,,,0.00,WUHU216HW,2013-02-15 18:36:00,
2013-02-15 12:41:00,26.3,11.8,30.12,NW,315,5.1,6.5,54,0.00,,,0.00,WUHU216HW,2013-02-15 18:41:00,
2013-02-15 12:46:00,26.5,12.3,30.12,NNW,338,4.7,8.5,55,0.00,,,0.00,WUHU216HW,2013-02-15 18:46:00,
2013-02-15 12:51:00,26.8,11.9,30.12,NNE,23,4.3,8.5,53,0.00,,,0.00,WUHU216HW,2013-02-15 18:51:00,
2013-02-15 12:56:00,27.0,12.1,30.11,North,0,2.7,8.5,53,0.00,,,0.00,WUHU216HW,2013-02-15 18:56:00,
2013-02-15 13:01:00,27.0,11.6,30.11,North,0,5.1,7.6,52,0.00,,,0.00,WUHU216HW,2013-02-15 19:01:00,
2013-02-15 13:06:00,27.0,11.6,30.11,North,0,7.4,9.8,52,0.00,,,0.00,WUHU216HW,2013-02-15 19:06:00,
2013-02-15 13:11:00,27.4,11.6,30.11,NNE,23,2.2,9.8,51,0.00,,,0.00,WUHU216HW,2013-02-15 19:11:00,
2013-02-15 13:13:00,27.7,12.3,30.11,NE,45,3.4,3.4,52,0.00,,,0.00,WUHU216HW,2013-02-15 19:13:00,
2013-02-15 13:16:00,27.7,12.3,30.11,NE,45,3.4,7.4,52,0.00,,,0.00,WUHU216HW,2013-02-15 19:16:00,
2013-02-15 13:21:00,27.7,12.3,30.11,NE,45,3.4,5.4,52,0.00,,,0.00,WUHU216HW,2013-02-15 19:21:00,
2013-02-15 14:00:00,30.1,11.7,30.10,NW,315,3.1,3.1,46,0.00,,,0.00,WUHU216HW,2013-02-15 20:00:00,
2013-02-15 14:05:00,31.1,13.1,30.10,North,0,2.5,6.3,47,0.00,,,0.00,WUHU216HW,2013-02-15 20:05:00,
2013-02-15 14:10:00,31.1,11.6,30.10,North,0,5.8,6.3,44,0.00,,,0.00,WUHU216HW,2013-02-15 20:10:00,
2013-02-15 14:15:00,29.9,10.0,30.10,NW,315,6.0,8.7,43,0.00,,,0.00,WUHU216HW,2013-02-15 20:15:00,
2013-02-15 14:20:00,29.5,10.7,30.10,NW,315,3.8,8.7,45,0.00,,,0.00,WUHU216HW,2013-02-15 20:20:00,
2013-02-15 14:25:00,30.4,11.5,30.10,NE,45,1.6,6.7,45,0.00,,,0.00,WUHU216HW,2013-02-15 20:25:00,
2013-02-15 14:30:00,31.1,11.6,30.10,NNW,338,2.0,5.6,44,0.00,,,0.00,WUHU216HW,2013-02-15 20:30:00,
2013-02-15 14:35:00,31.1,11.6,30.10,North,0,4.0,5.6,44,0.00,,,0.00,WUHU216HW,2013-02-15 20:35:00,
2013-02-15 14:41:00,31.7,11.6,30.10,NNW,338,5.1,5.1,43,0.00,,,0.00,WUHU216HW,2013-02-15 20:41:00,
2013-02-15 14:46:00,31.5,11.4,30.10,NW,315,1.8,5.1,43,0.00,,,0.00,WUHU216HW,2013-02-15 20:46:00,
2013-02-15 14:51:00,32.6,12.0,30.10,NW,315,1.3,6.5,42,0.00,,,0.00,WUHU216HW,2013-02-15 20:51:00,
2013-02-15 14:56:00,31.5,10.4,30.10,North,0,4.7,6.5,41,0.00,,,0.00,WUHU216HW,2013-02-15 20:56:00,
2013-02-15 15:01:00,30.8,9.8,30.10,NNW,338,4.7,5.1,41,0.00,,,0.00,WUHU216HW,2013-02-15 21:01:00,
2013-02-15 15:06:00,29.9,10.0,30.10,NNW,338,5.4,5.6,43,0.00,,,0.00,WUHU216HW,2013-02-15 21:06:00,
2013-02-15 15:11:00,29.3,10.0,30.10,NNE,23,2.9,5.8,44,0.00,,,0.00,WUHU216HW,2013-02-15 21:11:00,
2013-02-15 15:16:00,29.0,10.7,30.10,NW,315,2.5,9.8,46,0.00,,,0.00,WUHU216HW,2013-02-15 21:16:00,
2013-02-15 15:21:00,29.2,10.4,30.10,NNW,338,3.1,9.8,45,0.00,,,0.00,WUHU216HW,2013-02-15 21:21:00,
2013-02-15 15:26:00,30.2,11.3,30.10,North,0,2.5,5.8,45,0.00,,,0.00,WUHU216HW,2013-02-15 21:26:00,
2013-02-15 15:31:00,27.4,9.7,30.10,North,0,6.0,6.3,47,0.00,,,0.00,WUHU216HW,2013-02-15 21:31:00,
2013-02-15 15:36:00,25.9,8.8,30.10,NNE,23,5.1,7.4,48,0.00,,,0.00,WUHU216HW,2013-02-15 21:36:00,
2013-02-15 15:41:00,25.6,8.5,30.10,NE,45,4.5,7.4,48,0.00,,,0.00,WUHU216HW,2013-02-15 21:41:00,
2013-02-15 15:46:00,25.6,9.0,30.11,NE,45,3.1,6.5,49,0.00,,,0.00,WUHU216HW,2013-02-15 21:46:00,
2013-02-15 15:51:00,25.6,9.0,30.11,North,0,2.5,5.1,49,0.00,,,0.00,WUHU216HW,2013-02-15 21:51:00,
2013-02-15 15:56:00,25.2,8.6,30.11,SW,225,4.0,6.9,49,0.00,,,0.00,WUHU216HW,2013-02-15 21:56:00,
2013-02-15 16:01:00,24.8,9.3,30.11,North,0,4.7,6.9,51,0.00,,,0.00,WUHU216HW,2013-02-15 22:01:00,
2013-02-15 16:06:00,24.8,8.8,30.11,North,0,4.7,6.0,50,0.00,,,0.00,WUHU216HW,2013-02-15 22:06:00,
2013-02-15 16:11:00,24.7,9.5,30.11,North,0,5.1,6.5,52,0.00,,,0.00,WUHU216HW,2013-02-15 22:11:00,
2013-02-15 16:16:00,24.8,9.6,30.11,NNE,23,3.6,6.5,52,0.00,,,0.00,WUHU216HW,2013-02-15 22:16:00,
2013-02-15 16:21:00,24.5,9.7,30.11,NW,315,3.4,7.6,53,0.00,,,0.00,WUHU216HW,2013-02-15 22:21:00,
2013-02-15 16:26:00,24.3,9.2,30.11,North,0,2.2,7.6,52,0.00,,,0.00,WUHU216HW,2013-02-15 22:26:00,
2013-02-15 16:31:00,24.1,9.0,30.11,NNW,338,3.4,6.3,52,0.00,,,0.00,WUHU216HW,2013-02-15 22:31:00,
2013-02-15 16:36:00,23.9,9.3,30.11,North,0,2.9,11.4,53,0.00,,,0.00,WUHU216HW,2013-02-15 22:36:00,
2013-02-15 16:41:00,23.8,8.6,30.11,NNW,338,4.3,11.4,52,0.00,,,0.00,WUHU216HW,2013-02-15 22:41:00,
2013-02-15 16:46:00,23.4,9.1,30.12,NNW,338,2.5,6.0,54,0.00,,,0.00,WUHU216HW,2013-02-15 22:46:00,
2013-02-15 16:51:00,23.0,8.8,30.12,NNE,23,4.0,5.1,54,0.00,,,0.00,WUHU216HW,2013-02-15 22:51:00,
2013-02-15 16:56:00,23.0,8.8,30.12,NNW,338,5.1,5.6,54,0.00,,,0.00,WUHU216HW,2013-02-15 22:56:00,
2013-02-15 17:01:00,22.7,8.5,30.12,North,0,5.8,8.7,54,0.00,,,0.00,WUHU216HW,2013-02-15 23:01:00,
2013-02-15 17:07:00,22.5,8.6,30.12,NNW,338,4.0,8.7,55,0.00,,,0.00,WUHU216HW,2013-02-15 23:07:00,
2013-02-15 17:12:00,22.3,8.5,30.12,North,0,3.4,8.5,55,0.00,,,0.00,WUHU216HW,2013-02-15 23:12:00,
2013-02-15 17:17:00,22.0,8.6,30.12,NNE,23,4.7,7.2,56,0.00,,,0.00,WUHU216HW,2013-02-15 23:17:00,
2013-02-15 17:22:00,22.0,8.6,30.12,North,0,5.6,7.2,56,0.00,,,0.00,WUHU216HW,2013-02-15 23:22:00,
2013-02-15 17:28:00,21.8,8.8,30.12,North,0,3.8,6.7,57,0.00,,,0.00,WUHU216HW,2013-02-15 23:28:00,
2013-02-15 17:33:00,21.6,8.7,30.12,NNW,338,6.3,8.5,57,0.00,,,0.00,WUHU216HW,2013-02-15 23:33:00,
2013-02-15 17:38:00,21.4,8.9,30.12,North,0,5.8,8.5,58,0.00,,,0.00,WUHU216HW,2013-02-15 23:38:00,
2013-02-15 17:43:00,21.2,9.1,30.13,NNE,23,3.1,8.1,59,0.00,,,0.00,WUHU216HW,2013-02-15 23:43:00,
2013-02-15 17:48:00,21.1,8.9,30.13,NNW,338,4.5,9.2,59,0.00,,,0.00,WUHU216HW,2013-02-15 23:48:00,
2013-02-15 17:53:00,20.9,8.7,30.13,NNE,23,4.7,9.2,59,0.00,,,0.00,WUHU216HW,2013-02-15 23:53:00,
2013-02-15 17:58:00,20.5,8.0,30.13,NW,315,10.1,11.9,58,0.00,,,0.00,WUHU216HW,2013-02-15 23:58:00,
2013-02-15 18:03:00,20.5,8.4,30.13,North,0,6.5,11.9,59,0.00,,,0.00,WUHU216HW,2013-02-16 00:03:00,
2013-02-15 18:08:00,20.2,7.7,30.13,North,0,7.6,10.1,58,0.00,,,0.00,WUHU216HW,2013-02-16 00:08:00,
2013-02-15 18:13:00,20.0,7.9,30.13,NNE,23,6.0,10.5,59,0.00,,,0.00,WUHU216HW,2013-02-16 00:13:00,
2013-02-15 18:18:00,19.8,7.8,30.13,NNW,338,6.5,10.5,59,0.00,,,0.00,WUHU216HW,2013-02-16 00:18:00,
2013-02-15 18:23:00,19.6,7.9,30.14,North,0,5.1,10.1,60,0.00,,,0.00,WUHU216HW,2013-02-16 00:23:00,
2013-02-15 18:28:00,19.4,8.1,30.14,NNE,23,3.4,10.1,61,0.00,,,0.00,WUHU216HW,2013-02-16 00:28:00,
2013-02-15 18:33:00,19.3,7.9,30.14,North,0,5.4,9.2,61,0.00,,,0.00,WUHU216HW,2013-02-16 00:33:00,
2013-02-15 18:38:00,19.1,7.7,30.14,North,0,3.8,7.6,61,0.00,,,0.00,WUHU216HW,2013-02-16 00:38:00,
2013-02-15 18:43:00,18.9,7.9,30.14,NNE,23,5.1,6.9,62,0.00,,,0.00,WUHU216HW,2013-02-16 00:43:00,
2013-02-15 18:48:00,18.7,7.7,30.14,North,0,8.9,10.5,62,0.00,,,0.00,WUHU216HW,2013-02-16 00:48:00,
2013-02-15 18:53:00,18.7,7.5,30.14,NW,315,8.3,10.5,61,0.00,,,0.00,WUHU216HW,2013-02-16 00:53:00,
2013-02-15 18:58:00,18.4,7.5,30.14,North,0,6.9,10.1,62,0.00,,,0.00,WUHU216HW,2013-02-16 00:58:00,
2013-02-15 19:03:00,18.4,7.5,30.14,NNE,23,3.4,9.2,62,0.00,,,0.00,WUHU216HW,2013-02-16 01:03:00,
2013-02-15 19:08:00,18.2,7.3,30.14,NNW,338,4.5,9.2,62,0.00,,,0.00,WUHU216HW,2013-02-16 01:08:00,
2013-02-15 19:13:00,18.0,7.1,30.14,NNE,23,6.9,8.9,62,0.00,,,0.00,WUHU216HW,2013-02-16 01:13:00,
2013-02-15 19:18:00,17.8,6.9,30.14,North,0,6.3,7.4,62,0.00,,,0.00,WUHU216HW,2013-02-16 01:18:00,
2013-02-15 19:23:00,17.6,7.1,30.14,North,0,6.5,7.4,63,0.00,,,0.00,WUHU216HW,2013-02-16 01:23:00,
2013-02-15 19:28:00,17.5,6.9,30.14,North,0,4.0,8.5,63,0.00,,,0.00,WUHU216HW,2013-02-16 01:28:00,
2013-02-15 19:33:00,17.5,6.9,30.14,NNW,338,7.4,8.5,63,0.00,,,0.00,WUHU216HW,2013-02-16 01:33:00,
2013-02-15 19:38:00,17.3,6.8,30.14,North,0,4.9,7.8,63,0.00,,,0.00,WUHU216HW,2013-02-16 01:38:00,
2013-02-15 19:43:00,17.1,6.9,30.14,North,0,4.0,7.8,64,0.00,,,0.00,WUHU216HW,2013-02-16 01:43:00,
2013-02-15 19:48:00,16.9,6.8,30.14,NNW,338,3.6,8.7,64,0.00,,,0.00,WUHU216HW,2013-02-16 01:48:00,
2013-02-15 19:54:00,16.9,6.8,30.14,North,0,3.1,8.7,64,0.00,,,0.00,WUHU216HW,2013-02-16 01:54:00,
2013-02-15 19:58:00,16.7,6.6,30.14,NNW,338,4.5,7.6,64,0.00,,,0.00,WUHU216HW,2013-02-16 01:58:00,
2013-02-15 20:03:00,16.7,6.6,30.14,North,0,4.3,6.5,64,0.00,,,0.00,WUHU216HW,2013-02-16 02:03:00,
2013-02-15 20:08:00,16.6,6.8,30.15,NNE,23,3.4,6.5,65,0.00,,,0.00,WUHU216HW,2013-02-16 02:08:00,
2013-02-15 20:13:00,16.4,6.6,30.15,NNW,338,4.7,6.5,65,0.00,,,0.00,WUHU216HW,2013-02-16 02:13:00,
2013-02-15 20:18:00,16.2,6.8,30.15,North,0,7.4,7.4,66,0.00,,,0.00,WUHU216HW,2013-02-16 02:18:00,
2013-02-15 20:23:00,16.2,6.8,30.15,North,0,5.6,7.4,66,0.00,,,0.00,WUHU216HW,2013-02-16 02:23:00,
2013-02-15 20:28:00,16.0,6.6,30.15,NNE,23,4.9,7.4,66,0.00,,,0.00,WUHU216HW,2013-02-16 02:28:00,
2013-02-15 20:33:00,15.7,6.2,30.15,North,0,2.5,6.3,66,0.00,,,0.00,WUHU216HW,2013-02-16 02:33:00,
2013-02-15 20:38:00,15.5,6.4,30.15,North,0,3.4,6.0,67,0.00,,,0.00,WUHU216HW,2013-02-16 02:38:00,
2013-02-15 20:43:00,15.3,6.2,30.15,NNW,338,2.2,4.9,67,0.00,,,0.00,WUHU216HW,2013-02-16 02:43:00,
2013-02-15 20:48:00,15.1,6.4,30.15,NNW,338,1.8,7.8,68,0.00,,,0.00,WUHU216HW,2013-02-16 02:48:00,
2013-02-15 20:53:00,15.1,6.4,30.15,North,0,3.6,7.8,68,0.00,,,0.00,WUHU216HW,2013-02-16 02:53:00,
2013-02-15 20:58:00,14.9,6.0,30.15,North,0,6.5,6.7,67,0.00,,,0.00,WUHU216HW,2013-02-16 02:58:00,
2013-02-15 21:03:00,14.9,6.0,30.15,NNE,23,6.7,6.7,67,0.00,,,0.00,WUHU216HW,2013-02-16 03:03:00,
2013-02-15 21:08:00,14.8,5.4,30.15,NNW,338,7.4,9.6,66,0.00,,,0.00,WUHU216HW,2013-02-16 03:08:00,
2013-02-15 21:13:00,14.8,5.0,30.15,NNE,23,4.7,9.6,65,0.00,,,0.00,WUHU216HW,2013-02-16 03:13:00,
2013-02-15 21:18:00,14.8,5.4,30.15,North,0,5.6,9.6,66,0.00,,,0.00,WUHU216HW,2013-02-16 03:18:00,
2013-02-15 21:23:00,14.6,5.2,30.16,North,0,3.6,9.6,66,0.00,,,0.00,WUHU216HW,2013-02-16 03:23:00,
2013-02-15 21:28:00,14.4,5.0,30.16,North,0,4.0,9.6,66,0.00,,,0.00,WUHU216HW,2013-02-16 03:28:00,
2013-02-15 21:33:00,14.4,5.0,30.16,NNW,338,6.9,9.4,66,0.00,,,0.00,WUHU216HW,2013-02-16 03:33:00,
2013-02-15 21:38:00,14.4,5.0,30.16,NNW,338,6.9,9.4,66,0.00,,,0.00,WUHU216HW,2013-02-16 03:38:00,
2013-02-15 23:00:00,12.1,3.4,30.16,NE,45,4.0,4.0,68,0.00,,,0.00,WUHU216HW,2013-02-16 05:00:00,
2013-02-15 23:05:00,11.9,3.2,30.15,NNW,338,3.8,5.6,68,0.00,,,0.00,WUHU216HW,2013-02-16 05:05:00,
2013-02-15 23:10:00,11.9,3.2,30.15,NNE,23,4.9,8.5,68,0.00,,,0.00,WUHU216HW,2013-02-16 05:10:00,
2013-02-15 23:15:00,11.9,3.2,30.15,North,0,4.7,8.5,68,0.00,,,0.00,WUHU216HW,2013-02-16 05:15:00,
2013-02-15 23:20:00,11.9,3.2,30.15,North,0,4.7,4.7,68,0.00,,,0.00,WUHU216HW,2013-02-16 05:20:00,